GW4639 Weather Reports


time (UTC)temp
C
wind
direction
speed
KPH
gust
KPH
rain 1hr
cm
rain 24hr
cm
rain mn
cm
humidity
%
barometer
mb
20260906145229 22 69 4.8 8.0 0.00 0.00 0.00 87 1023.0
20260906144724 22 48 8.0 8.0 0.00 0.00 0.00 86 1022.6
20260906144213 22 64 4.8 8.0 0.00 0.00 0.00 88 1023.0
20260906143712 22 39 4.8 4.8 0.00 0.00 0.00 86 1023.0
20260906143210 22 59 3.2 4.8 0.00 0.00 0.00 88 1022.6
20260906142709 22 58 6.4 9.7 0.00 0.00 0.00 88 1022.6
20260906142205 22 55 3.2 4.8 0.00 0.00 0.00 87 1023.0
20260906141703 22 58 1.6 1.6 0.00 0.00 0.00 88 1022.6
20260906141158 22 40 4.8 8.0 0.00 0.00 0.00 90 1023.0
20260906140657 21 90 3.2 3.2 0.00 0.00 0.00 91 1022.6
20260906140153 21 109 6.4 9.7 0.00 0.00 0.00 91 1022.6
20260906135649 21 63 1.6 1.6 0.00 0.00 0.00 92 1022.6
20260906135146 21 50 3.2 4.8 0.00 0.00 0.00 91 1022.6
20260906134641 21 57 4.8 9.7 0.00 0.00 0.00 91 1022.6
20260906134136 21 55 8.0 11.3 0.00 0.00 0.00 91 1023.0
20260906133631 21 44 3.2 4.8 0.00 0.00 0.00 92 1022.6
20260906133126 21 5 3.2 4.8 0.00 0.00 0.00 93 1022.6
20260906132621 20 46 1.6 1.6 0.00 0.00 0.00 97 1022.6
20260906132117 20 41 3.2 3.2 0.00 0.00 0.00 99 1022.6
20260906131613 20 58 4.8 4.8 0.00 0.00 0.00 99 1022.6
20260906131108 19 36 0.0 1.6 0.00 0.00 0.00 99 1022.6
20260906130608 18 38 0.0 1.6 0.00 0.00 0.00 99 1022.6
20260906130103 18 351 0.0 0.0 0.00 0.00 0.00 99 1022.6
20260906125600 18 52 1.6 3.2 0.00 0.00 0.00 99 1022.6
20260906125054 17 318 1.6 1.6 0.00 0.00 0.00 99 1022.3
20260906124549 17 321 0.0 0.0 0.00 0.00 0.00 99 1022.3
20260906124044 17 321 0.0 1.6 0.00 0.00 0.00 99 1022.3
20260906123544 17 320 0.0 1.6 0.00 0.00 0.00 99 1022.3
20260906123040 17 320 0.0 1.6 0.00 0.00 0.00 99 1021.9
20260906122538 17 320 0.0 0.0 0.00 0.00 0.00 99 1021.9
20260906122035 17 321 0.0 0.0 0.00 0.00 0.00 99 1022.3
20260906121531 17 321 0.0 0.0 0.00 0.00 0.00 99 1021.9
20260906121027 16 321 0.0 0.0 0.00 0.00 0.00 99 1022.3
20260906120521 16 321 1.6 3.2 0.00 0.00 0.00 99 1021.9
20260906120020 16 322 0.0 0.0 0.00 0.00 0.00 99 1021.6
20260906115519 16 324 0.0 0.0 0.00 0.00 0.00 99 1021.6
20260906115014 16 324 0.0 0.0 0.00 0.00 0.00 99 1021.6
20260906114514 16 324 1.6 1.6 0.00 0.00 0.00 99 1021.6
20260906114010 17 324 0.0 0.0 0.00 0.00 0.00 99 1021.6
20260906113509 17 324 1.6 1.6 0.00 0.00 0.00 99 1021.6
20260906113004 17 325 0.0 1.6 0.00 0.00 0.00 99 1021.3
20260906112459 17 325 0.0 0.0 0.00 0.00 0.00 99 1021.3
20260906111955 17 325 0.0 0.0 0.00 0.00 0.00 99 1021.3
20260906111455 17 325 0.0 0.0 0.00 0.00 0.00 99 1021.3
20260906110955 17 325 1.6 1.6 0.00 0.00 0.00 99 1021.3
20260906110450 17 326 0.0 1.6 0.00 0.00 0.00 99 1020.8
20260906105949 17 327 0.0 0.0 0.00 0.00 0.00 99 1020.8
20260906105445 17 327 0.0 0.0 0.00 0.00 0.00 99 1021.3
20260906104941 17 330 0.0 0.0 0.00 0.00 0.00 99 1021.3
20260906104439 17 310 1.6 1.6 0.00 0.00 0.00 99 1020.8
20260906103939 17 320 1.6 1.6 0.00 0.00 0.00 99 1020.8
20260906103437 17 311 1.6 3.2 0.00 0.00 0.00 99 1020.8
20260906102932 17 291 3.2 3.2 0.00 0.00 0.00 99 1020.8
20260906102432 17 328 0.0 1.6 0.00 0.00 0.00 99 1020.8
20260906101927 17 318 1.6 1.6 0.00 0.00 0.00 99 1020.8
20260906101422 17 262 4.8 4.8 0.00 0.00 0.00 99 1020.8
20260906100918 17 310 1.6 1.6 0.00 0.00 0.00 99 1021.3
20260906100417 17 306 3.2 3.2 0.00 0.00 0.00 99 1021.3
20260906095912 17 291 3.2 4.8 0.00 0.00 0.00 99 1021.3
20260906095408 17 308 1.6 1.6 0.00 0.00 0.00 99 1020.8
20260906094908 17 307 1.6 1.6 0.00 0.00 0.00 99 1020.5
20260906094403 17 311 1.6 1.6 0.00 0.00 0.00 99 1020.5
20260906093853 17 295 3.2 3.2 0.00 0.00 0.00 99 1020.8
20260906093349 17 286 3.2 3.2 0.00 0.00 0.00 99 1020.8
20260906092849 17 296 3.2 3.2 0.00 0.00 0.00 99 1020.8
20260906092344 17 306 1.6 1.6 0.00 0.00 0.00 99 1020.8
20260906091839 17 327 3.2 4.8 0.00 0.00 0.00 99 1020.8
20260906091335 17 288 3.2 3.2 0.00 0.00 0.00 99 1020.8
20260906090832 17 310 1.6 3.2 0.00 0.00 0.00 99 1020.5
20260906090331 17 299 3.2 4.8 0.00 0.00 0.00 99 1020.8
20260906085830 17 277 3.2 3.2 0.00 0.00 0.00 99 1020.5
20260906085324 17 328 0.0 1.6 0.00 0.00 0.00 99 1020.5
20260906084818 17 328 0.0 1.6 0.00 0.00 0.00 99 1020.5
20260906084312 17 288 1.6 1.6 0.00 0.00 0.00 99 1020.5
20260906083807 17 309 1.6 1.6 0.00 0.00 0.00 99 1020.8
20260906083303 17 306 1.6 1.6 0.00 0.00 0.00 99 1020.8
20260906082803 17 289 3.2 4.8 0.00 0.00 0.00 99 1020.5
20260906082257 17 321 1.6 1.6 0.00 0.00 0.00 99 1020.5
20260906081754 17 311 1.6 3.2 0.00 0.00 0.00 99 1020.5
20260906081249 17 306 1.6 1.6 0.00 0.00 0.00 99 1020.5
20260906080746 17 319 1.6 1.6 0.00 0.00 0.00 99 1020.5
20260906080242 17 317 1.6 3.2 0.00 0.00 0.00 99 1020.5
20260906075741 17 316 3.2 3.2 0.00 0.00 0.00 99 1020.5
20260906075236 17 309 1.6 1.6 0.00 0.00 0.00 99 1020.5
20260906074731 17 302 1.6 3.2 0.00 0.00 0.00 99 1020.5
20260906074230 17 320 1.6 1.6 0.00 0.00 0.00 99 1020.5
20260906073724 17 306 1.6 1.6 0.00 0.00 0.00 99 1020.5
20260906073219 17 318 1.6 1.6 0.00 0.00 0.00 99 1020.5
20260906072715 17 316 1.6 1.6 0.00 0.00 0.00 99 1020.5
20260906072210 17 299 1.6 3.2 0.00 0.00 0.00 99 1020.5
20260906071706 17 330 0.0 0.0 0.00 0.00 0.00 99 1020.5
20260906071201 17 330 0.0 0.0 0.00 0.00 0.00 99 1020.1
20260906070657 17 321 1.6 3.2 0.00 0.00 0.00 99 1020.1
20260906070153 17 306 1.6 1.6 0.00 0.00 0.00 99 1020.1
20260906065652 17 315 1.6 1.6 0.00 0.00 0.00 99 1020.1
20260906065148 17 319 0.0 0.0 0.00 0.00 0.00 99 1020.5
20260906064643 17 315 1.6 1.6 0.00 0.00 0.00 99 1020.1
20260906064138 17 320 0.0 0.0 0.00 0.00 0.00 99 1020.5
20260906063633 17 316 1.6 1.6 0.00 0.00 0.00 99 1020.5
20260906063129 17 314 0.0 1.6 0.00 0.00 0.00 99 1020.5
20260906062625 17 311 0.0 0.0 0.00 0.00 0.00 99 1020.5
20260906062123 17 310 0.0 1.6 0.00 0.00 0.00 99 1020.5
20260906061620 17 310 1.6 1.6 0.00 0.00 0.00 99 1020.5
20260906061119 17 310 0.0 0.0 0.00 0.00 0.00 99 1020.5
20260906060616 17 314 0.0 0.0 0.00 0.00 0.00 99 1020.5
20260906060108 17 314 0.0 0.0 0.00 0.00 0.00 99 1020.5
20260906055603 17 315 1.6 1.6 0.00 0.00 0.00 99 1020.5
20260906055058 17 321 1.6 1.6 0.00 0.00 0.00 99 1020.5
20260906054552 17 319 0.0 0.0 0.00 0.00 0.00 99 1020.1
20260906054047 17 328 1.6 1.6 0.00 0.00 0.00 99 1020.1
20260906053544 17 325 0.0 1.6 0.00 0.00 0.00 99 1020.1
20260906053039 17 318 0.0 1.6 0.00 0.00 0.00 99 1020.1
20260906052534 17 316 0.0 0.0 0.00 0.00 0.00 99 1020.1
20260906052031 17 320 0.0 1.6 0.00 0.00 0.00 99 1020.1
20260906051527 17 306 0.0 1.6 0.00 0.00 0.00 99 1020.1
20260906051023 17 305 1.6 3.2 0.00 0.00 0.00 99 1019.8
20260906050518 17 288 1.6 3.2 0.00 0.00 0.00 99 1020.1
20260906050013 17 309 0.0 1.6 0.00 0.00 0.00 99 1020.1
20260906045511 16 311 0.0 0.0 0.00 0.00 0.00 99 1019.8
20260906045007 16 311 1.6 1.6 0.00 0.00 0.00 99 1019.8
20260906044502 17 311 0.0 0.0 0.00 0.00 0.00 99 1019.8
20260906043957 17 311 0.0 0.0 0.00 0.00 0.00 99 1020.1
20260906043453 17 311 0.0 0.0 0.00 0.00 0.00 99 1020.1
20260906042949 17 313 1.6 1.6 0.00 0.00 0.00 99 1020.1
20260906042448 17 313 0.0 0.0 0.00 0.00 0.00 99 1020.1
20260906041947 17 314 0.0 1.6 0.00 0.00 0.00 99 1020.1
20260906041444 17 315 1.6 1.6 0.00 0.00 0.00 99 1020.1
20260906040943 17 317 0.0 0.0 0.00 0.00 0.00 99 1019.8
20260906040438 17 319 0.0 0.0 0.00 0.00 0.00 99 1019.5
20260906035933 17 319 1.6 1.6 0.00 0.00 0.00 99 1019.8
20260906035429 17 323 0.0 0.0 0.00 0.00 0.00 99 1019.5
20260906034924 17 324 0.0 0.0 0.00 0.00 0.00 99 1019.8
20260906034419 17 324 0.0 1.6 0.00 0.00 0.00 99 1019.8
20260906033915 17 324 0.0 0.0 0.00 0.00 0.00 99 1019.8
20260906033414 17 325 1.6 1.6 0.00 0.00 0.00 99 1019.8
20260906032911 17 325 0.0 1.6 0.00 0.00 0.00 99 1019.8
20260906032407 17 325 0.0 0.0 0.00 0.00 0.00 99 1019.8
20260906031906 17 325 0.0 0.0 0.00 0.00 0.00 99 1019.8
20260906031402 17 325 0.0 1.6 0.00 0.00 0.00 99 1019.8
20260906030858 17 316 1.6 1.6 0.00 0.00 0.00 99 1019.5
20260906030352 17 319 0.0 0.0 0.00 0.00 0.00 99 1019.8
20260906025847 17 319 0.0 0.0 0.00 0.00 0.00 99 1019.8
20260906025341 17 319 0.0 0.0 0.00 0.00 0.00 99 1019.8
20260906024840 17 318 0.0 0.0 0.00 0.00 0.00 99 1019.8
20260906024339 17 314 0.0 0.0 0.00 0.00 0.00 99 1019.8
20260906023835 17 313 0.0 1.6 0.00 0.00 0.00 99 1019.8
20260906023331 17 313 0.0 1.6 0.00 0.00 0.00 99 1019.8
20260906022826 18 312 0.0 0.0 0.00 0.00 0.00 99 1019.8
20260906022321 18 335 0.0 1.6 0.00 0.00 0.00 99 1019.5
20260906021817 18 81 0.0 0.0 0.00 0.00 0.00 99 1019.5
20260906021316 18 82 0.0 0.0 0.00 0.00 0.00 99 1019.5
20260906020815 18 217 1.6 3.2 0.00 0.00 0.00 99 1019.5
20260906020316 18 323 0.0 1.6 0.00 0.00 0.00 99 1019.1
20260906015816 18 323 0.0 0.0 0.00 0.00 0.00 99 1019.5
20260906015315 18 323 0.0 0.0 0.00 0.00 0.00 99 1019.5
20260906014814 18 323 0.0 0.0 0.00 0.00 0.00 99 1019.5
20260906014310 18 323 0.0 0.0 0.00 0.00 0.00 99 1019.5
20260906013806 18 323 0.0 0.0 0.00 0.00 0.00 99 1019.5
20260906013300 18 323 0.0 0.0 0.00 0.00 0.00 99 1019.1
20260906012756 18 323 0.0 0.0 0.00 0.00 0.00 99 1019.1
20260906012251 18 323 0.0 0.0 0.00 0.00 0.00 99 1019.1
20260906011746 19 323 0.0 0.0 0.00 0.00 0.00 99 1019.1
20260906011246 19 323 0.0 0.0 0.00 0.00 0.00 99 1019.1
20260906010742 19 323 0.0 0.0 0.00 0.00 0.00 99 1019.5
20260906010238 19 323 0.0 0.0 0.00 0.00 0.00 99 1019.5
20260906005733 20 323 0.0 0.0 0.00 0.00 0.00 99 1019.5
20260906005232 20 323 0.0 0.0 0.00 0.00 0.00 99 1019.5
20260906004731 20 323 0.0 0.0 0.00 0.00 0.00 99 1019.5
20260906004226 20 323 0.0 0.0 0.00 0.00 0.00 99 1019.1
20260906003721 20 323 0.0 0.0 0.00 0.00 0.00 99 1019.1
20260906003217 20 323 0.0 0.0 0.00 0.00 0.00 98 1019.1
20260906002717 21 323 1.6 1.6 0.00 0.00 0.00 98 1019.5
20260906002212 21 323 0.0 1.6 0.00 0.00 0.00 98 1019.5
20260906001707 21 323 1.6 1.6 0.00 0.00 0.00 98 1019.5
20260906001207 21 328 1.6 1.6 0.00 0.00 0.00 98 1019.5
20260906000703 21 328 0.0 0.0 0.00 0.00 0.00 98 1019.1
20260906000158 21 328 0.0 1.6 0.00 0.00 0.00 98 1019.5
20260905235657 21 305 4.8 8.0 0.00 0.00 0.00 98 1019.5
20260905235152 21 309 4.8 4.8 0.00 0.00 0.00 98 1019.5
20260905234647 21 321 3.2 3.2 0.00 0.00 0.00 97 1019.5
20260905234142 21 314 3.2 3.2 0.00 0.00 0.00 98 1019.5
20260905233637 21 333 0.0 1.6 0.00 0.00 0.00 98 1019.8
20260905233137 21 326 0.0 1.6 0.00 0.00 0.00 98 1019.5
20260905232632 21 326 0.0 1.6 0.00 0.00 0.00 98 1019.5
20260905232128 21 283 3.2 3.2 0.00 0.00 0.00 98 1019.5
20260905231623 21 338 1.6 1.6 0.00 0.00 0.00 98 1019.5
20260905231119 21 347 1.6 1.6 0.00 0.00 0.00 98 1019.5
20260905230615 21 293 0.0 0.0 0.00 0.00 0.00 98 1019.5
20260905230113 21 300 1.6 1.6 0.00 0.00 0.00 98 1019.5
20260905225612 21 294 4.8 4.8 0.00 0.00 0.00 99 1019.1
20260905225107 21 353 0.0 1.6 0.00 0.00 0.00 99 1019.5
20260905224601 21 301 4.8 4.8 0.00 0.00 0.00 98 1019.1
20260905224101 21 257 3.2 8.0 0.00 0.00 0.00 98 1019.1
20260905223558 21 354 0.0 0.0 0.00 0.00 0.00 98 1019.1
20260905223054 21 316 4.8 4.8 0.00 0.00 0.00 98 1019.1
20260905222554 21 290 9.7 11.3 0.00 0.00 0.00 98 1019.1
20260905222049 22 330 8.0 9.7 0.00 0.00 0.00 98 1018.8
20260905221545 22 284 1.6 1.6 0.00 0.00 0.00 98 1018.8
20260905221041 22 301 4.8 4.8 0.00 0.00 0.00 98 1019.1
20260905220537 22 306 6.4 8.0 0.00 0.00 0.00 98 1018.8
20260905220033 22 330 3.2 4.8 0.00 0.00 0.00 98 1018.8
20260905215532 22 48 4.8 8.0 0.00 0.00 0.00 98 1018.8
20260905215028 22 40 1.6 3.2 0.00 0.00 0.00 99 1018.8
20260905214524 22 49 1.6 1.6 0.00 0.00 0.00 99 1018.8
20260905214019 21 277 3.2 4.8 0.00 0.00 0.00 98 1018.4
20260905213514 21 309 4.8 4.8 0.00 0.00 0.00 98 1018.8
20260905213010 22 325 3.2 3.2 0.00 0.00 0.00 99 1018.8
20260905212504 22 330 1.6 1.6 0.00 0.00 0.00 98 1018.8
20260905212003 22 269 3.2 4.8 0.00 0.00 0.00 98 1018.8
20260905211459 22 332 3.2 4.8 0.00 0.00 0.00 99 1018.8
20260905210955 22 310 4.8 8.0 0.00 0.00 0.00 99 1018.8
20260905210450 22 308 3.2 3.2 0.00 0.00 0.00 98 1019.1
20260905205949 22 315 1.6 1.6 0.00 0.00 0.00 98 1018.8
20260905205444 22 328 1.6 1.6 0.00 0.00 0.00 98 1018.8
20260905204943 22 268 6.4 9.7 0.00 0.00 0.00 98 1018.8
20260905204439 22 334 1.6 1.6 0.00 0.00 0.00 98 1018.8
20260905203938 22 299 1.6 1.6 0.00 0.00 0.00 98 1018.8
20260905203434 22 324 1.6 1.6 0.00 0.00 0.00 98 1018.8
20260905202929 22 318 1.6 1.6 0.00 0.00 0.00 99 1018.8
20260905202425 22 359 1.6 1.6 0.00 0.00 0.00 99 1018.8
20260905201920 22 358 1.6 1.6 0.00 0.00 0.00 99 1018.8
20260905201416 21 330 1.6 1.6 0.00 0.00 0.00 99 1018.8
20260905200915 21 277 4.8 4.8 0.00 0.00 0.00 99 1018.8
20260905200411 21 273 4.8 4.8 0.00 0.00 0.00 99 1018.8
20260905195908 21 356 0.0 0.0 0.00 0.00 0.00 99 1018.8
20260905195404 21 320 3.2 4.8 0.00 0.00 0.00 99 1018.8
20260905194900 21 295 1.6 3.2 0.00 0.00 0.00 99 1018.8
20260905194359 21 308 3.2 3.2 0.00 0.00 0.00 99 1018.8
20260905193853 21 326 0.0 1.6 0.00 0.00 0.00 99 1018.8
20260905193348 21 282 3.2 3.2 0.00 0.00 0.00 99 1019.1
20260905192844 21 308 3.2 3.2 0.00 0.00 0.00 99 1018.8
20260905192339 22 328 0.0 1.6 0.00 0.00 0.00 99 1019.1
20260905191838 22 274 3.2 4.8 0.00 0.00 0.00 99 1018.8
20260905191338 22 290 0.0 1.6 0.00 0.00 0.00 99 1018.8
20260905190837 22 239 4.8 8.0 0.00 0.00 0.00 99 1018.8
20260905190331 22 320 1.6 8.0 0.00 0.00 0.00 99 1019.1
20260905185829 22 333 3.2 4.8 0.00 0.00 0.00 99 1018.8
20260905185325 22 319 3.2 3.2 0.00 0.00 0.00 99 1018.8
20260905184818 22 257 6.4 9.7 0.00 0.00 0.00 99 1018.8
20260905184317 22 298 3.2 3.2 0.00 0.00 0.00 99 1018.8
20260905183815 22 295 9.7 16.1 0.00 0.00 0.00 99 1018.8
20260905183311 22 275 8.0 11.3 0.00 0.00 0.00 99 1018.8
20260905182806 23 314 4.8 4.8 0.00 0.00 0.00 98 1018.8
20260905182306 23 355 0.0 0.0 0.00 0.00 0.00 99 1018.8
20260905181802 22 256 3.2 3.2 0.00 0.00 0.00 99 1018.8
20260905181300 22 312 4.8 4.8 0.00 0.00 0.00 99 1018.8
20260905180754 22 339 6.4 9.7 0.00 0.00 0.00 99 1018.8
20260905180249 22 316 1.6 4.8 0.00 0.00 0.00 99 1018.8
20260905175744 23 289 4.8 8.0 0.00 0.00 0.00 99 1018.8
20260905175239 23 303 8.0 11.3 0.00 0.00 0.00 99 1018.8
20260905174734 23 330 4.8 8.0 0.00 0.00 0.00 99 1019.1
20260905174229 23 237 6.4 9.7 0.00 0.00 0.00 99 1018.4
20260905173720 23 277 6.4 8.0 0.00 0.00 0.00 99 1018.8
20260905173215 23 337 1.6 3.2 0.00 0.00 0.00 99 1018.8
20260905172709 23 247 4.8 4.8 0.00 0.00 0.00 99 1018.8
20260905172203 23 305 4.8 4.8 0.00 0.00 0.00 98 1018.8
20260905171659 23 319 1.6 3.2 0.00 0.00 0.00 98 1018.8
20260905171155 23 323 3.2 3.2 0.00 0.00 0.00 97 1018.8
20260905170652 23 335 4.8 8.0 0.00 0.00 0.00 96 1018.8
20260905170147 23 258 8.0 14.5 0.00 0.00 0.00 96 1018.8
20260905165646 23 329 1.6 1.6 0.00 0.00 0.00 96 1018.8
20260905165142 24 267 4.8 8.0 0.00 0.00 0.00 95 1018.8
20260905164636 24 253 3.2 3.2 0.00 0.00 0.00 95 1018.4
20260905164136 23 357 4.8 4.8 0.00 0.00 0.00 95 1018.8
20260905163632 23 294 3.2 4.8 0.00 0.00 0.00 96 1018.8
20260905163128 23 19 1.6 3.2 0.00 0.00 0.00 97 1018.8
20260905162624 23 316 3.2 3.2 0.00 0.00 0.00 98 1018.8
20260905162123 23 300 3.2 3.2 0.00 0.00 0.00 97 1018.8
20260905161623 23 345 1.6 3.2 0.00 0.00 0.00 98 1018.8
20260905161121 22 264 3.2 3.2 0.00 0.00 0.00 98 1018.8
20260905160620 22 306 11.3 14.5 0.00 0.00 0.00 98 1018.8
20260905160115 23 285 1.6 1.6 0.00 0.00 0.00 98 1019.1
20260905155609 22 323 1.6 1.6 0.00 0.00 0.00 98 1018.8
20260905155108 22 342 3.2 4.8 0.00 0.00 0.00 98 1018.8
20260905154608 22 316 1.6 1.6 0.00 0.00 0.00 98 1018.8
20260905154104 22 329 4.8 4.8 0.00 0.00 0.00 98 1018.8
20260905153559 22 301 8.0 11.3 0.00 0.00 0.00 97 1018.4
20260905153054 23 308 11.3 14.5 0.00 0.00 0.00 97 1018.4
20260905152549 23 299 3.2 3.2 0.00 0.00 0.00 97 1018.4
20260905152044 23 252 1.6 3.2 0.00 0.00 0.00 97 1018.4
20260905151539 23 290 4.8 4.8 0.00 0.00 0.00 97 1018.1
20260905151034 23 310 1.6 1.6 0.00 0.00 0.00 98 1018.1
20260905150530 23 51 1.6 1.6 0.00 0.00 0.00 99 1018.4
20260905150028 22 298 3.2 4.8 0.00 0.00 0.00 99 1018.4